Home > Weather > Molepolole > Past weeks

Flag for Botswana Weather for the Past 2 Weeks in Molepolole, Botswana

Now
88 °F

Clear.


Feels Like: 85 °F
Forecast: 72 / 96 °F
Wind: 7 mph from Northeast

Location: Seretse Khama International Airport

Current Time: Feb 14, 2016 at 9:23:19 PM

Latest Report: Feb 14, 2016 at 9:00 PM


Visibility: 10 mi

Pressure: 29.89 "Hg (26.28 "Hg at 1145m altitude)

Humidity: 25%

Dew point: 48 °F

Location of MolepololeLocation

Historic Weather in Molepolole — Graph

°F

Molepolole Temperature Yesterday

Maximum temperature yesterday: 97 °F (at 2:00 PM)
Minimum temperature yesterday: 70 °F (at 5:00 AM)
Average temperature yesterday: 84 °F

High & Low Weather Summary for the Past Weeks

 TemperatureHumidityPressure
High99 °F (Feb 3, 3:00 PM)94% (Feb 8, 11:00 PM)30.18 "Hg (Feb 8, 11:00 PM)
Low63 °F (Feb 11, 4:00 AM)13% (Jan 31, 4:00 PM)29.83 "Hg (Feb 4, 4:00 PM)
Average82 °F42%29.99 "Hg
* Reported Jan 30 8:00 PM — Feb 14 8:00 PM, Molepolole, Weather by CustomWeather, © 2016

Note: Actual official high and low records may vary slightly from our data, if they occured in-between our weather recording intervals... More about our weather records

Advertising

Molepolole Weather History for the Previous 24 Hours

 ConditionsComfort  
Time TempWeatherWind HumidityBarometerVisibility
8:00 PM
Sun, Feb 14
90 °FPassing clouds.6 mph24%29.86 "HgN/A
7:00 PM93 °FClear.9 mph20%29.86 "Hg10 mi
6:00 PM95 °FPassing clouds.12 mph19%29.86 "HgN/A
5:00 PM97 °FPassing clouds.14 mph20%29.86 "HgN/A
4:00 PM95 °FScattered clouds.13 mph20%29.86 "HgN/A
3:00 PM95 °FScattered clouds.10 mph23%29.89 "HgN/A
2:00 PM95 °FPassing clouds.14 mph25%29.92 "HgN/A
1:00 PM95 °FPassing clouds.9 mph26%29.95 "HgN/A
12:00 PM91 °FPassing clouds.10 mph32%29.98 "HgN/A
11:00 AM90 °FPassing clouds.10 mph36%30.01 "HgN/A
10:00 AM86 °FSunny.14 mph40%30.01 "Hg10 mi
9:00 AM81 °FSunny.14 mph45%30.01 "Hg10 mi
8:00 AM81 °FPassing clouds.9 mph45%30.01 "HgN/A
7:00 AM75 °FSunny.7 mph54%29.98 "Hg10 mi
6:00 AM73 °FSunny.7 mph57%29.95 "Hg10 mi
5:00 AM73 °FClear.7 mph57%29.92 "Hg10 mi
4:00 AM72 °FClear.1 mph65%29.92 "Hg10 mi
3:00 AM73 °FClear.7 mph57%29.92 "Hg10 mi
2:00 AM77 °FClear.6 mph51%29.92 "Hg10 mi
11:00 PM
Sat, Feb 13
81 °FClear.1 mph42%29.92 "Hg10 mi
10:00 PM82 °FClear.5 mph37%29.92 "Hg10 mi
9:00 PM84 °FClear.7 mph33%29.89 "Hg10 mi
Weather by CustomWeather, © 2016

See weather overviewHow to use our weather pages